Location: Unspecified
(0.0000°N, 0.0000°E)
Time: 16:54:18
(UTC+00:00)

Vanguard 2 Rocket - Pass Details

Date: 14 December 2018
Orbit: 554 x 3326 km, 32.9° (Epoch: 17 June)

Event Time Altitude Azimuth Distance (km) Brightness Sun altitude
Rises 14:29:41 0° 301° (WNW) 4,788 10.8 45.8°
Reaches altitude 10° 14:32:18 10° 300° (WNW) 4,096 10.6 45.2°
Maximum altitude 14:44:17 78° 215° (SW) 2,606 10.3 42.7°
Drops below altitude 10° 15:03:46 10° 130° (SE) 6,237 11.1 38.6°
Sets 15:08:52 0° 128° (SE) 7,317 11.3 37.5°
